Flag for Slovenia Weather past 2 weeks in Celje, Slovenia

Now
50 °F

Light rain. Overcast.


Feels Like: 48 °F
Forecast: 30 / 50 °F
Wind: 5 mph from West

Location: Celje

Current Time: Mar 2, 2015 at 1:58:46 PM

Latest Report: Mar 2, 2015 at 1:00 PM


Visibility: 11 mi

Pressure: 29.79 "Hg

Humidity: 76%

Dew point: 42 °F

Location of CeljeLocation

Historic Weather in Celje — Graph

°F

Celje temperature yesterday

Maximum temperature yesterday: 52 °F (at 3:00 PM)
Minimum temperature yesterday: 38 °F (at 9:00 AM)
Average temperature yesterday: 48 °F

Past Weeks' High & Low Weather Summary

 TemperatureHumidityPressure
High55 °F (Feb 20, 3:00 PM)97% (Feb 17, 11:00 AM)30.79 "Hg (Feb 17, 11:00 AM)
Low22 °F (Feb 19, 7:00 AM)34% (Feb 20, 4:00 PM)29.65 "Hg (Feb 23, 5:00 PM)
Average39 °F78%30.09 "Hg
* Reported Feb 15 12:00 Noon — Mar 2 12:00 Noon, Celje, Weather by CustomWeather, © 2015

Note: Actual official high and low records may vary slightly from our data, if they occured in-between our weather recording intervals... More about our weather records

Advertising

Celje weather history for previous 24 hours

 ConditionsComfort  
Time TempWeatherWind HumidityBarometerVisibility
12:00 PM
Mon, Mar 2
50 °FCool.5 mph72%29.81 "HgN/A
11:00 AM51 °FCool.8 mph68%29.83 "HgN/A
10:00 AM50 °FCool.7 mph70%29.84 "HgN/A
9:00 AM49 °FCool.8 mph70%29.84 "HgN/A
8:00 AM48 °FCool.7 mph74%29.84 "HgN/A
7:00 AM48 °FLight rain. Overcast.7 mph70%29.84 "Hg11 mi
6:00 AM48 °FOvercast.5 mph69%29.85 "Hg9 mi
5:00 AM49 °FOvercast.7 mph67%29.86 "Hg12 mi
4:00 AM48 °FOvercast.8 mph69%29.88 "Hg19 mi
3:00 AM47 °FCool.7 mph67%29.89 "HgN/A
2:00 AM47 °FCool.9 mph64%29.90 "HgN/A
1:00 AM42 °FQuite cool.3 mph73%29.93 "HgN/A
12:00 AM44 °FQuite cool.2 mph68%29.92 "HgN/A
11:00 PM
Sun, Mar 1
46 °FCool.5 mph65%29.93 "HgN/A
9:00 PM45 °FCool.3 mph64%29.93 "HgN/A
8:00 PM48 °FCool.6 mph57%29.93 "HgN/A
7:00 PM49 °FOvercast.7 mph54%29.91 "Hg19 mi
6:00 PM50 °FCool.6 mph51%29.90 "HgN/A
5:00 PM51 °FCool.6 mph52%29.89 "HgN/A
4:00 PM52 °FCool.5 mph49%29.88 "HgN/A
3:00 PM52 °FCool.6 mph51%29.90 "HgN/A
2:00 PM52 °FOvercast.8 mph53%29.92 "Hg16 mi
1:00 PM52 °FOvercast.6 mph53%29.93 "Hg12 mi
Weather by CustomWeather, © 2015

See weather overviewHow to use our weather pages